Regional Weather Roundup
Issued by NWS

Home | Current Version | Previous Version | Text Only | Print | Product List | Glossary Off
Versions: 1 2 3 4 5 6 7 8 9 10 11 12 13 14 15 16 17 18 19 20 21 22 23 24 25 26 27 28 29 30 31 32 33 34 35 36 37 38 39 40 41 42 43 44 45 46 47 48 49 50

000
ASUS45 KTFX 211604
RWRMT
MONTANA HOURLY WEATHER ROUNDUP
NATIONAL WEATHER SERVICE GREAT FALLS MT
1004 AM MDT THU AUG 21 2014

NOTE: "FAIR" INDICATES FEW OR NO CLOUDS BELOW 12000 FEET WITH NO
SIGNIFICANT WEATHER AND/OR OBSTRUCTIONS TO VISIBILITY.

* THESE STATIONS ARE NOT UNDER NWS QUALITY CONTROL. THEY DO NOT
   REPORT WEATHER SUCH AS PRECIPITATION OR FOG.

MTZ001>007-043-211700-
WEST OF THE DIVIDE
CITY           SKY/WX    TMP DP  RH WIND       PRES   REMARKS
KALISPELL      LGT RAIN  55  50  83 N10       30.05R
MISSOULA       PTSUNNY   64  52  65 VRB5      30.04S
BUTTE          CLOUDY    52  46  80 CALM      30.11S
MULLAN PASS    PTSUNNY   54  48  80 CALM      30.10S
* LINCOLN      N/A       52  50  93 E1         N/A
* LOOKOUT PASS N/A       59  50  72 SE4        N/A
* POLSON       N/A       55  55 100 N1         N/A
* RONAN APT    PTCLDY    61  55  81 N5         N/A
* SEELEY LAKE  N/A       57  52  83 NE1        N/A
* THOMP F APT  SUNNY     49  48  96 S4G10      N/A
* YAAK HILL    N/A       56  54  93 S1         N/A
$$

MTZ008-052>055-211700-
SOUTHWEST MONTANA
CITY           SKY/WX    TMP DP  RH WIND       PRES   REMARKS
BOZEMAN        CLOUDY    57  52  83 W3        30.07S
DILLON         PTSUNNY   54  52  93 CALM      30.10R
W YELLOWSTONE  CLOUDY    50  48  93 SW6       30.16S
* THREE FORKS  CLOUDY    59  59 100 NW6        N/A
* BOULDER HILL N/A       49  46  89 VRB8       N/A
* MONIDA PASS  N/A       47  47 100 SE6        N/A
* RAYNOLDS PAS N/A       50  32  50 SE9        N/A
* WHITEHALL    N/A       53  52  96 SW2        N/A
* WISE RIVER   N/A       52  49  90 W4         N/A
$$

MTZ009>010-012-014-046-048-049-054-211700-
EAST SLOPES AND CENTRAL MONTANA
CITY           SKY/WX    TMP DP  RH WIND       PRES   REMARKS
CUT BANK       CLOUDY    54  48  80 N6        30.11R
GREAT FALLS    CLOUDY    55  52  90 N8        30.08R
HELENA         CLOUDY    57  50  78 W7        30.08F
MALMSTROM AFB  CLOUDY    55  52  90 NW6       30.10R
* CONRAD       PTSUNNY   54  54 100 NW7        N/A
* DEARBORN     N/A       58  52  81 S3         N/A
* EAST GLACIER N/A       48  46  93 NE5        N/A
* MONARCH      N/A       51  48  90 NW2        N/A
* PENDROY      N/A       50  49  96 N10G16     N/A
* ROGERS PASS  N/A       49  48  96 S2         N/A
* SAINT MARY   N/A       48  48 100 E3         N/A
* SWEET GRASS  N/A       53  53 100 NE14       N/A
$$

MTZ011-013-016-021-035-040-045-047-050-051-211700-
NORTH CENTRAL MONTANA
CITY           SKY/WX    TMP DP  RH WIND       PRES   REMARKS
HAVRE          CLOUDY    63  57  81 W6        30.03R
LEWISTOWN      CLOUDY    57  54  90 NW5       30.08S
* CHESTER      N/A       56  52  87 NE9G15     N/A
* DENTON       N/A       59  55  87 N/A        N/A
* GEYSER       N/A       56  54  93 W9         N/A
* JUDITH GAP   N/A       53  52  96 VRB12      N/A
* LOMA         N/A       57  55  93 W4         N/A
$$

MTZ017>020-022>027-061-062-211700-
NORTHEAST MONTANA
CITY           SKY/WX    TMP DP  RH WIND       PRES   REMARKS
GLASGOW        CLOUDY    68  61  78 N6        29.97R
GLENDIVE       CLOUDY    66  61  84 NE3       29.97R
JORDAN         CLOUDY    64  57  78 NW10      29.99R
SIDNEY         PTSUNNY   70  63  79 N5        29.95R
WOLF POINT     RAIN      64  61  90 N7        29.97R VSB 2
* BEAVER HILL  N/A       63  62  97 N/A        N/A
* CIRCLE       N/A       65  61  87 SW5        N/A
* LINDSAY DVD  N/A       67  61  81 N1         N/A
* SACO         N/A       64  59  84 NW5        N/A
$$

MTZ028>042-056>058-211700-
SOUTHCENTRAL AND SOUTHEAST MONTANA
CITY           SKY/WX    TMP DP  RH WIND       PRES   REMARKS
BAKER          CLOUDY    66  59  78 W5        29.98S
BILLINGS       PTSUNNY   64  55  73 E6        30.04R
LIVINGSTON     LGT RAIN  57  54  90 N3        30.07S
MILES CITY     CLOUDY    66  57  73 W7        29.99R
* LAUREL APT   PTSUNNY   64  54  70 N7         N/A
* ROUNDUP APT  CLOUDY    59  52  78 N/A        N/A
* ALZADA       N/A       71  55  57 NW4        N/A
* HYSHAM       N/A       62  54  75 NW4G9      N/A
* LAME DEER    N/A       61  53  75 N/A        N/A
* REED POINT   N/A       65  51  61 NE4        N/A
* ROSCOE HILL  N/A       56  49  77 N2         N/A
$$

REGIONAL REPORTS...DAKOTAS
CITY           SKY/WX    TMP DP  RH WIND       PRES   REMARKS
WILLISTON      CLOUDY    64  61  90 N10       29.93R
DICKINSON      PTCLDY    70  63  79 NW10      29.91R
BEACH          N/A       64  64 100 NW7       29.97R
CROSBY         CLOUDY    63  63 100 N9        29.92S
TIOGA          CLOUDY    63  63 100 NW10      29.94R
WATFORD CITY   SUNNY     72  59  64 N7        29.90R
BISMARCK       PTSUNNY   73  64  74 NW12      29.86R
GRAND FORKS    CLOUDY    73  66  79 SE12      29.76F
FARGO          CLOUDY    73  68  84 E7        29.76S
BUFFALO SD     PTCLDY    73  59  62 N7        29.90R
RAPID CITY     PTCLDY    75  57  54 NE9       29.98R
$$

REGIONAL REPORTS...WYOMING/IDAHO/WASHINGTON
CITY           SKY/WX    TMP DP  RH WIND       PRES   REMARKS
GILLETTE       PTCLDY    68  54  61 N3        30.03S
SHERIDAN       PTSUNNY   70  52  53 N7        30.03F
CODY           CLOUDY    59  50  72 N6        30.08S
YELLOWSTONE LA CLOUDY    48  45  89 CALM      30.23R
SALMON         SUNNY     57  52  83 CALM      30.06F
MULLAN PASS    PTSUNNY   54  48  80 CALM      30.10S
SAND POINT     CLOUDY    61  55  81 NE6       30.00S
SPOKANE        PTCLDY    63  52  68 SE5       29.99S
$$

REGIONAL REPORTS...SASKATCHEWAN
CITY           SKY/WX    TMP DP  RH WIND       PRES   REMARKS
MOOSE JAW      PTSUNNY  N/A N/A N/A N10        N/A

$$




USA.gov is the U.S. government's official web portal to all federal, state and local government web resources and services.